Location: Jangalapalle
(16.8036°N, 80.6370°E)
Time: 11:23:41
(UTC+00:00)

SL-16 R/B - Pass Details

Date: 05 August 2024
Orbit: 841 x 847 km, 71.0° (Epoch: 08 September)

Event Time Altitude Azimuth Distance (km) Brightness Sun altitude
Exits shadow 22:52:23 31° 209° (SSW) 1,433 3.0 -20.1°
Maximum altitude 22:55:08 72° 287° (WNW) 887 2.1 -19.6°
Drops below altitude 10° 23:00:47 10° 11° (NNE) 2,465 5.1 -18.3°
Sets 23:03:15 0° 14° (NNE) 3,402 5.9 -17.8°
